Location: Palomar Mountain Lodge
(33.3110°N, 116.8495°W)
Time: 07:45:42
(UTC-07:00)

NOSS 2-2 (C) - Pass Details

Date: 19 May 2017
Orbit: 536 x 1674 km, 63.4° (Epoch: 18 September)

Event Time Altitude Azimuth Distance (km) Brightness Sun altitude
Exits shadow 22:04:57 13° 235° (SW) 1,577 5.7 -24.6°
Maximum altitude 22:08:07 43° 305° (NW) 784 4.5 -25.0°
Drops below altitude 10° 22:12:12 10° 18° (NNE) 1,967 6.5 -25.5°
Sets 22:14:45 0° 25° (NNE) 2,997 7.4 -25.9°
